Location: *
(34.8620°S, 39.3380°E)
Time: 00:24:35
(UTC+00:00)

SJ 16-02 - Pass Details

Date: 27 July 2021
Orbit: 605 x 617 km, 75.0° (Epoch: 20 September)

Event Time Altitude Azimuth Distance (km) Brightness Sun altitude
Exits shadow 02:16:23 25° 168° (SSE) 1,266 2.9 -25.5°
Maximum altitude 02:18:37 45° 109° (ESE) 845 2.3 -25.0°
Drops below altitude 10° 02:22:49 10° 36° (NE) 1,964 4.5 -24.2°
Sets 02:25:07 0° 29° (NNE) 2,857 5.3 -23.7°
